Home > Time Zones > World Clock > Weather > U.S.A. > Adak > Past weeks

Flag for U.S.A. Weather past 2 weeks in Adak, Alaska, U.S.A.

Now
34 °F

Broken clouds.


Feels Like: 34 °F
Forecast: 32 / 37 °F
Wind: No wind

Location: Adak

Current Time: Mar 30, 2015 at 11:32:07 AM

Latest Report: Mar 30, 2015 at 10:56 AM


Visibility: 10 mi

Pressure: 29.72 "Hg

Humidity: 81%

Dew point: 28 °F

Location of AdakLocation

Historic Weather in Adak — Graph

°F

Adak temperature yesterday

Maximum temperature yesterday: 39 °F (at 1:36 PM)
Minimum temperature yesterday: 23 °F (at 6:16 AM)
Average temperature yesterday: 31 °F

Past Weeks' High & Low Weather Summary

 TemperatureHumidityPressure
High41 °F (Mar 20, 3:16 PM)100% (Mar 16, 6:36 PM)29.92 "Hg (Mar 16, 6:36 PM)
Low23 °F (Mar 29, 6:16 AM)45% (Mar 26, 2:56 PM)29.47 "Hg (Mar 16, 6:36 PM)
Average34 °F72%29.72 "Hg
* Reported Mar 16 6:36 PM — Mar 30 10:16 AM, Adak, Weather by CustomWeather, © 2015

Note: Actual official high and low records may vary slightly from our data, if they occured in-between our weather recording intervals... More about our weather records

Advertising

Adak weather history for previous 24 hours

 ConditionsComfort  
Time TempWeatherWind HumidityBarometerVisibility
10:16 AM
Mon, Mar 30
32 °FMore clouds than sun.No wind87%29.73 "Hg4 mi
9:56 AM30 °FBroken clouds.No wind86%29.73 "Hg10 mi
9:36 AM30 °FBroken clouds.No wind86%29.74 "Hg10 mi
9:16 AM30 °FMostly cloudy.No wind86%29.74 "Hg10 mi
8:56 AM30 °FCloudy.No wind80%29.74 "Hg10 mi
8:36 AM30 °FMostly cloudy.No wind80%29.75 "Hg8 mi
8:16 AM28 °FMostly cloudy.3 mph86%29.75 "Hg10 mi
7:56 AM28 °FMostly cloudy.No wind86%29.75 "Hg10 mi
7:36 AM28 °FMostly cloudy.No wind86%29.75 "Hg10 mi
7:16 AM28 °FOvercast.No wind86%29.76 "Hg10 mi
6:56 AM28 °FMostly cloudy.3 mph86%29.76 "Hg10 mi
6:36 AM28 °FPartly cloudy.No wind86%29.77 "Hg10 mi
6:16 AM28 °FPassing clouds.5 mph86%29.77 "Hg10 mi
5:56 AM27 °FPassing clouds.3 mph80%29.78 "Hg10 mi
5:36 AM28 °FClear.3 mph80%29.78 "Hg10 mi
5:16 AM28 °FPassing clouds.No wind86%29.79 "Hg10 mi
4:56 AM30 °FMostly cloudy.5 mph86%29.79 "Hg10 mi
4:36 AM30 °FPartly cloudy.8 mph86%29.80 "Hg10 mi
4:16 AM30 °FPartly cloudy.7 mph86%29.80 "Hg10 mi
3:56 AM28 °FPartly cloudy.No wind86%29.80 "Hg10 mi
3:36 AM27 °FPassing clouds.No wind80%29.80 "Hg10 mi
3:16 AM28 °FPassing clouds.No wind80%29.81 "Hg10 mi
2:56 AM28 °FPassing clouds.No wind74%29.81 "Hg10 mi
2:36 AM30 °FPassing clouds.No wind80%29.81 "Hg10 mi
2:16 AM30 °FPassing clouds.6 mph80%29.81 "Hg10 mi
1:56 AM28 °FPassing clouds.9 mph86%29.80 "Hg10 mi
1:36 AM28 °FPassing clouds.8 mph80%29.80 "Hg10 mi
12:56 AM28 °FPartly cloudy.6 mph86%29.80 "Hg10 mi
12:36 AM28 °FPartly cloudy.6 mph80%29.80 "Hg10 mi
12:16 AM30 °FPassing clouds.7 mph80%29.80 "Hg10 mi
11:56 PM
Sun, Mar 29
30 °FPassing clouds.9 mph80%29.80 "Hg10 mi
11:36 PM34 °FPassing clouds.7 mph75%29.80 "Hg10 mi
11:16 PM34 °FPassing clouds.8 mph75%29.80 "Hg10 mi
10:56 PM32 °FPassing clouds.7 mph80%29.80 "Hg10 mi
10:36 PM32 °FPassing clouds.8 mph75%29.80 "Hg10 mi
10:16 PM34 °FPassing clouds.12 mph70%29.79 "Hg10 mi
9:56 PM34 °FPartly cloudy.10 mph70%29.79 "Hg10 mi
9:36 PM34 °FPartly cloudy.9 mph70%29.79 "Hg10 mi
9:16 PM34 °FOvercast.15 mph75%29.79 "Hg10 mi
8:56 PM34 °FOvercast.6 mph70%29.78 "Hg10 mi
8:36 PM34 °FPartly sunny.6 mph70%29.78 "Hg10 mi
8:16 PM36 °FBroken clouds.10 mph65%29.78 "Hg10 mi
7:56 PM34 °FBroken clouds.7 mph75%29.77 "Hg5 mi
7:36 PM34 °FPartly sunny.15 mph75%29.77 "Hg2 mi
7:16 PM36 °FBroken clouds.12 mph75%29.77 "Hg10 mi
6:56 PM34 °FMostly cloudy.12 mph81%29.77 "Hg5 mi
6:16 PM34 °FMostly cloudy.28 mph81%29.77 "Hg1 mi
5:56 PM36 °FMostly cloudy.20 mph75%29.76 "Hg7 mi
5:36 PM36 °FBroken clouds.18 mph75%29.76 "Hg5 mi
5:16 PM36 °FCloudy.23 mph81%29.75 "Hg7 mi
4:56 PM37 °FMostly cloudy.13 mph75%29.74 "Hg9 mi
4:36 PM36 °FCloudy.9 mph81%29.75 "Hg5 mi
4:16 PM36 °FCloudy.10 mph81%29.76 "Hg8 mi
3:56 PM36 °FCloudy.9 mph81%29.76 "Hg6 mi
3:36 PM37 °FBroken clouds.8 mph75%29.77 "Hg10 mi
3:16 PM37 °FBroken clouds.10 mph75%29.77 "Hg9 mi
2:56 PM39 °FBroken clouds.12 mph61%29.78 "Hg10 mi
2:36 PM37 °FMore clouds than sun.10 mph65%29.78 "Hg10 mi
2:16 PM39 °FPartly sunny.12 mph61%29.79 "Hg10 mi
1:56 PM39 °FBroken clouds.12 mph61%29.79 "Hg10 mi
1:36 PM39 °FOvercast.9 mph56%29.80 "Hg10 mi
12:56 PM37 °FBroken clouds.9 mph60%29.80 "Hg10 mi
12:16 PM37 °FSunny.7 mph56%29.80 "Hg10 mi
11:56 AM37 °FPassing clouds.8 mph52%29.80 "Hg10 mi
11:36 AM36 °FSunny.No wind56%29.80 "Hg10 mi
11:16 AM36 °FPassing clouds.3 mph60%29.80 "Hg10 mi
Weather by CustomWeather, © 2015

See weather overviewHow to use our weather pages